User: anonymous   Login
Location: Unspecified
(0.0000°N, 0.0000°E)
Time: 07:46:56
(UTC+00:00)
Language:

STARLINK-33626 - Orbit

View from above orbital plane
View from above orbital plane
View from above satellite
View from above satellite

Ground track
Ground track

The orbit is defined by the following mean orbital elements,

1 63369U          26145.58335647 +.00000000 +00000-0 +33927-2 0 00005
2 63369  53.1594  52.8636 0001457 137.7350 324.8987 15.34295862    05
Epoch (UTC): 25 May 2026 14:00:01
Eccentricity: 0.0001457
inclination: 53.1594°
perigee height: 462 km
apogee height: 464 km
right ascension of ascending node: 52.8636°
argument of perigee: 137.7350°
revolutions per day: 15.34295862
mean anomaly at epoch: 324.8987°

The dashed part of the orbit path shows where the satellite is in the earth's shadow,  

DLR